GW4431 Weather Reports


Display with metric or nautical units.
time (UTC)temp
F
wind
direction
speed
MPH
gust
MPH
rain 1hr
in
rain 24hr
in
rain mn
in
humidity
%
barometer
mb
20260904114103 80 200 1.0 3.0 0.00 0.00 0.00 92 1017.3
20260904113602 79 183 1.0 2.0 0.00 0.00 0.00 93 1017.4
20260904113056 79 191 2.0 2.0 0.00 0.00 0.00 94 1017.4
20260904112552 78 176 1.0 3.0 0.00 0.00 0.00 95 1017.3
20260904112048 78 210 0.0 2.0 0.00 0.00 0.00 95 1017.1
20260904111543 78 168 1.0 1.0 0.00 0.00 0.00 95 1017.1
20260904111038 78 176 2.0 2.0 0.00 0.00 0.00 95 1017.1
20260904110532 78 194 1.0 2.0 0.00 0.00 0.00 95 1017.1
20260904110028 78 157 1.0 2.0 0.00 0.00 0.00 95 1017.2
20260904105522 78 191 1.0 2.0 0.00 0.00 0.00 94 1017.0
20260904105017 78 210 0.0 2.0 0.00 0.00 0.00 94 1017.0
20260904104513 78 228 0.0 2.0 0.00 0.00 0.00 94 1016.9
20260904104008 78 204 1.0 2.0 0.00 0.00 0.00 94 1016.7
20260904103504 79 192 1.0 2.0 0.00 0.00 0.00 93 1017.0
20260904103000 79 179 0.0 2.0 0.00 0.00 0.00 93 1017.1
20260904102455 79 145 1.0 3.0 0.00 0.00 0.00 93 1016.9
20260904101950 79 191 0.0 2.0 0.00 0.00 0.00 93 1016.8
20260904101447 79 157 2.0 2.0 0.00 0.00 0.00 93 1016.8
20260904100943 79 242 0.0 2.0 0.00 0.00 0.00 93 1016.7
20260904100438 79 188 1.0 3.0 0.00 0.00 0.00 93 1016.7
20260904095938 79 128 2.0 3.0 0.00 0.00 0.00 93 1016.7
20260904095433 79 114 3.0 3.0 0.00 0.00 0.00 93 1016.5
20260904094928 79 102 1.0 3.0 0.00 0.00 0.00 93 1016.4
20260904094423 79 189 0.0 2.0 0.00 0.00 0.00 94 1016.2
20260904093919 79 146 1.0 2.0 0.00 0.00 0.00 93 1016.3
20260904093414 79 258 0.0 3.0 0.00 0.00 0.00 94 1016.3
20260904092909 79 121 2.0 3.0 0.00 0.00 0.00 94 1016.3
20260904092406 78 128 0.0 3.0 0.00 0.00 0.00 94 1016.3
20260904091901 78 154 2.0 3.0 0.00 0.00 0.00 94 1016.4
20260904091356 78 130 3.0 3.0 0.00 0.00 0.00 94 1016.4
20260904090851 78 228 0.0 2.0 0.00 0.00 0.00 94 1016.3
20260904090348 78 227 0.0 2.0 0.00 0.00 0.00 94 1016.4
20260904085843 78 156 0.0 3.0 0.00 0.00 0.00 95 1016.2
20260904085338 78 120 2.0 3.0 0.00 0.00 0.00 95 1016.1
20260904084837 78 185 1.0 2.0 0.00 0.00 0.00 95 1016.4
20260904084334 78 203 2.0 3.0 0.00 0.00 0.00 95 1016.3
20260904083829 78 139 0.0 2.0 0.00 0.00 0.00 95 1016.3
20260904083326 78 212 1.0 2.0 0.00 0.00 0.00 95 1016.1
20260904082821 78 167 3.0 3.0 0.00 0.00 0.00 95 1016.3
20260904082315 78 142 0.0 2.0 0.00 0.00 0.00 95 1016.3
20260904081811 78 161 0.0 2.0 0.00 0.00 0.00 95 1016.1
20260904081307 78 185 0.0 2.0 0.00 0.00 0.00 94 1016.2
20260904080802 79 176 1.0 3.0 0.00 0.00 0.00 94 1016.0
20260904080257 79 201 3.0 3.0 0.00 0.00 0.00 94 1016.1
20260904075754 79 208 2.0 3.0 0.00 0.00 0.00 93 1016.3
20260904075248 79 208 2.0 3.0 0.00 0.00 0.00 93 1015.9
20260904074747 80 165 1.0 2.0 0.00 0.00 0.00 92 1016.1
20260904074243 80 180 1.0 2.0 0.00 0.00 0.00 92 1016.1
20260904073738 80 158 3.0 3.0 0.00 0.00 0.00 92 1016.1
20260904073234 80 112 2.0 3.0 0.00 0.00 0.00 92 1016.0
20260904072730 80 140 1.0 4.0 0.00 0.00 0.00 92 1015.9
20260904072224 80 144 3.0 3.0 0.00 0.00 0.00 92 1016.0
20260904071720 80 191 2.0 4.0 0.00 0.00 0.00 93 1015.9
20260904071214 80 137 3.0 5.0 0.00 0.00 0.00 94 1015.8
20260904070714 80 144 3.0 4.0 0.00 0.00 0.00 94 1016.0
20260904070213 79 191 0.0 3.0 0.00 0.00 0.00 94 1016.1
20260904065708 79 172 1.0 2.0 0.00 0.00 0.00 94 1016.2
20260904065205 79 160 0.0 2.0 0.00 0.00 0.00 94 1016.2
20260904064705 79 154 0.0 2.0 0.00 0.00 0.00 94 1016.2
20260904064200 79 98 2.0 3.0 0.00 0.00 0.00 94 1016.4
20260904063656 78 148 0.0 2.0 0.00 0.00 0.00 94 1016.3
20260904063152 78 135 0.0 1.0 0.00 0.00 0.00 93 1016.3
20260904062648 78 134 0.0 2.0 0.00 0.00 0.00 94 1016.3
20260904062143 78 188 1.0 2.0 0.00 0.00 0.00 93 1016.5
20260904061639 78 102 1.0 2.0 0.00 0.00 0.00 93 1016.5
20260904061135 78 189 0.0 2.0 0.00 0.00 0.00 93 1016.6
20260904060631 78 202 0.0 1.0 0.00 0.00 0.00 93 1016.7
20260904060127 78 236 0.0 1.0 0.00 0.00 0.00 93 1016.6
20260904055627 78 147 0.0 2.0 0.00 0.00 0.00 93 1016.6
20260904055122 78 240 0.0 1.0 0.00 0.00 0.00 93 1016.8
20260904054618 78 129 0.0 2.0 0.00 0.00 0.00 93 1016.7
20260904054114 78 150 0.0 2.0 0.00 0.00 0.00 92 1017.0
20260904053614 78 120 0.0 2.0 0.00 0.00 0.00 92 1016.8
20260904053108 78 105 0.0 2.0 0.00 0.00 0.00 92 1016.9
20260904052605 78 173 0.0 1.0 0.00 0.00 0.00 92 1017.1
20260904052100 78 104 0.0 1.0 0.00 0.00 0.00 92 1016.9
20260904051557 78 120 2.0 2.0 0.00 0.00 0.00 91 1017.0
20260904051056 78 121 0.0 1.0 0.00 0.00 0.00 91 1017.1
20260904050552 78 89 0.0 2.0 0.00 0.00 0.00 91 1017.2
20260904050048 78 208 0.0 2.0 0.00 0.00 0.00 91 1017.3
20260904045543 78 159 0.0 2.0 0.00 0.00 0.00 91 1017.2
20260904045038 78 217 0.0 2.0 0.00 0.00 0.00 91 1017.1
20260904044534 78 171 0.0 2.0 0.00 0.00 0.00 91 1017.4
20260904044030 78 180 0.0 2.0 0.00 0.00 0.00 91 1017.2
20260904043526 78 139 0.0 1.0 0.00 0.00 0.00 92 1017.3
20260904043021 78 175 0.0 3.0 0.00 0.00 0.00 92 1017.3
20260904042513 78 152 0.0 2.0 0.00 0.00 0.00 92 1017.4
20260904042007 78 160 2.0 2.0 0.00 0.00 0.00 92 1017.2
20260904041503 78 162 1.0 2.0 0.00 0.00 0.00 92 1017.3
20260904040959 78 202 0.0 2.0 0.00 0.00 0.00 92 1017.2
20260904040458 78 174 0.0 2.0 0.00 0.00 0.00 92 1017.0
20260904035955 78 168 1.0 2.0 0.00 0.00 0.00 92 1017.2
20260904035450 78 175 2.0 3.0 0.00 0.00 0.00 91 1016.8
20260904034949 79 202 2.0 2.0 0.00 0.00 0.00 90 1017.0
20260904034445 79 170 2.0 2.0 0.00 0.00 0.00 90 1017.0
20260904033940 79 180 1.0 4.0 0.00 0.00 0.00 90 1017.1
20260904033436 79 181 1.0 3.0 0.00 0.00 0.00 90 1017.1
20260904032933 79 218 0.0 2.0 0.00 0.00 0.00 90 1017.1
20260904032428 79 150 1.0 4.0 0.00 0.00 0.00 90 1017.1
20260904031927 79 147 0.0 2.0 0.00 0.00 0.00 89 1017.1
20260904031423 79 140 0.0 3.0 0.00 0.00 0.00 89 1017.2
20260904030919 79 133 3.0 5.0 0.00 0.00 0.00 89 1017.2
20260904030419 79 170 2.0 3.0 0.00 0.00 0.00 89 1017.4
20260904025915 79 156 2.0 2.0 0.00 0.00 0.00 90 1017.4
20260904025411 79 130 2.0 3.0 0.00 0.00 0.00 90 1017.3
20260904024910 79 170 1.0 2.0 0.00 0.00 0.00 91 1017.3
20260904024405 79 154 0.0 1.0 0.00 0.00 0.00 91 1017.4
20260904023902 79 48 0.0 2.0 0.00 0.00 0.00 91 1017.3
20260904023358 79 107 0.0 1.0 0.00 0.00 0.00 91 1017.2
20260904022856 79 53 0.0 0.0 0.00 0.00 0.00 90 1017.2
20260904022354 79 220 0.0 0.0 0.00 0.00 0.00 90 1017.3
20260904021850 79 217 0.0 0.0 0.00 0.00 0.00 90 1017.1
20260904021345 79 293 0.0 0.0 0.00 0.00 0.00 90 1017.1
20260904020840 79 113 0.0 1.0 0.00 0.00 0.00 90 1017.1
20260904020335 78 37 0.0 1.0 0.00 0.00 0.00 90 1017.1
20260904015834 78 107 0.0 1.0 0.00 0.00 0.00 90 1017.2
20260904015330 78 129 0.0 1.0 0.00 0.00 0.00 90 1017.1
20260904014828 79 269 0.0 1.0 0.00 0.00 0.00 90 1017.4
20260904014323 79 175 1.0 1.0 0.00 0.00 0.00 90 1017.3
20260904013819 79 126 0.0 2.0 0.00 0.00 0.00 89 1017.3
20260904013315 79 215 2.0 3.0 0.00 0.00 0.00 89 1017.1
20260904012811 79 229 0.0 1.0 0.00 0.00 0.00 88 1017.3
20260904012306 79 193 0.0 1.0 0.00 0.00 0.00 89 1017.1
20260904011804 79 191 0.0 1.0 0.00 0.00 0.00 89 1017.0
20260904011259 79 283 0.0 1.0 0.00 0.00 0.00 89 1016.8
20260904010753 79 297 0.0 0.0 0.00 0.00 0.00 89 1016.8
20260904010251 79 119 0.0 1.0 0.00 0.00 0.00 89 1017.0
20260904005750 79 113 0.0 1.0 0.00 0.00 0.00 89 1016.9
20260904005247 78 349 0.0 1.0 0.00 0.00 0.00 89 1016.8
20260904004741 78 4 0.0 1.0 0.00 0.00 0.00 89 1016.8
20260904004237 78 269 0.0 1.0 0.00 0.00 0.00 89 1016.8
20260904003731 78 75 0.0 0.0 0.00 0.00 0.00 89 1016.8
20260904003228 78 75 0.0 1.0 0.00 0.00 0.00 90 1017.0
20260904002723 78 114 0.0 1.0 0.00 0.00 0.00 89 1017.0
20260904002220 78 202 0.0 2.0 0.00 0.00 0.00 89 1016.9
20260904001714 78 216 0.0 2.0 0.00 0.00 0.00 89 1016.9
20260904001213 78 290 2.0 3.0 0.00 0.00 0.00 89 1017.0
20260904000709 79 255 2.0 3.0 0.00 0.00 0.00 89 1017.1
20260904000204 79 286 0.0 2.0 0.00 0.00 0.00 88 1016.8
20260903235703 79 238 3.0 4.0 0.00 0.00 0.00 88 1016.6
20260903235159 79 239 4.0 4.0 0.00 0.00 0.00 87 1016.7
20260903234648 79 250 3.0 5.0 0.00 0.00 0.00 86 1016.7
20260903234144 79 264 2.0 4.0 0.00 0.00 0.00 87 1016.6
20260903233640 80 242 3.0 4.0 0.00 0.00 0.00 86 1016.6
20260903233136 80 217 3.0 4.0 0.00 0.00 0.00 86 1016.7
20260903232630 80 213 4.0 5.0 0.00 0.00 0.00 86 1016.7
20260903232127 81 202 5.0 9.0 0.00 0.00 0.00 84 1016.5
20260903231621 81 191 3.0 5.0 0.00 0.00 0.00 84 1016.5
20260903231120 81 178 2.0 3.0 0.00 0.00 0.00 82 1016.4
20260903230616 82 206 5.0 6.0 0.00 0.00 0.00 84 1016.5
20260903230115 82 210 7.0 9.0 0.00 0.00 0.00 81 1016.5
20260903225612 84 158 3.0 8.0 0.00 0.00 0.00 82 1016.5
20260903225109 84 170 2.0 3.0 0.00 0.00 0.00 83 1016.4
20260903224605 84 144 1.0 3.0 0.00 0.00 0.00 82 1016.3
20260903224100 84 160 2.0 3.0 0.00 0.00 0.00 83 1016.4
20260903223555 84 214 0.0 2.0 0.00 0.00 0.00 82 1016.2
20260903223053 84 167 2.0 3.0 0.00 0.00 0.00 82 1016.2
20260903222549 84 160 4.0 4.0 0.00 0.00 0.00 81 1016.4
20260903222047 84 113 1.0 3.0 0.00 0.00 0.00 81 1015.8
20260903221543 84 115 2.0 3.0 0.00 0.00 0.00 81 1016.2
20260903221041 84 200 1.0 2.0 0.00 0.00 0.00 81 1016.0
20260903220539 84 74 2.0 4.0 0.00 0.00 0.00 81 1016.0
20260903220034 84 145 1.0 4.0 0.00 0.00 0.00 80 1016.1
20260903215533 84 170 1.0 4.0 0.00 0.00 0.00 81 1016.2
20260903215033 85 99 3.0 5.0 0.00 0.00 0.00 80 1016.1
20260903214533 86 85 3.0 4.0 0.00 0.00 0.00 80 1016.0
20260903214028 86 113 3.0 5.0 0.00 0.00 0.00 81 1015.7
20260903213523 85 100 1.0 5.0 0.00 0.00 0.00 82 1015.9
20260903213019 85 159 1.0 5.0 0.00 0.00 0.00 81 1016.0
20260903212514 86 126 1.0 4.0 0.00 0.00 0.00 81 1016.2
20260903212009 86 19 0.0 4.0 0.00 0.00 0.00 81 1016.1
20260903211504 86 97 2.0 4.0 0.00 0.00 0.00 80 1015.9
20260903211001 86 113 0.0 4.0 0.00 0.00 0.00 80 1015.6
20260903210501 87 112 4.0 4.0 0.00 0.00 0.00 78 1015.8
20260903205956 87 150 3.0 5.0 0.00 0.00 0.00 78 1015.5
20260903205450 86 120 2.0 6.0 0.00 0.00 0.00 81 1015.0
20260903204944 86 89 3.0 6.0 0.00 0.00 0.00 82 1015.0
20260903204441 86 94 3.0 4.0 0.00 0.00 0.00 82 1014.9
20260903203936 86 89 4.0 6.0 0.00 0.00 0.00 82 1015.0
20260903203432 86 51 1.0 3.0 0.00 0.00 0.00 82 1015.2
20260903202931 86 121 1.0 4.0 0.00 0.00 0.00 84 1015.5
20260903202427 85 99 3.0 5.0 0.00 0.00 0.00 84 1015.3
20260903201926 85 28 3.0 5.0 0.00 0.00 0.00 84 1015.6
20260903201422 85 110 2.0 6.0 0.00 0.00 0.00 84 1015.9
20260903200921 85 176 2.0 4.0 0.00 0.00 0.00 84 1015.9
20260903200416 85 80 3.0 8.0 0.00 0.00 0.00 83 1015.8
20260903195911 85 81 2.0 2.0 0.00 0.00 0.00 84 1015.8
20260903195408 84 1 0.0 6.0 0.00 0.00 0.00 84 1015.9
20260903194901 85 190 2.0 5.0 0.00 0.00 0.00 84 1016.0
20260903194357 85 181 1.0 3.0 0.00 0.00 0.00 84 1015.9
20260903193852 85 188 2.0 4.0 0.00 0.00 0.00 83 1016.0
20260903193349 85 109 5.0 5.0 0.00 0.00 0.00 82 1016.1
20260903192844 85 119 0.0 3.0 0.00 0.00 0.00 82 1016.1
20260903192339 85 77 2.0 5.0 0.00 0.00 0.00 82 1016.1
20260903191836 85 105 2.0 5.0 0.00 0.00 0.00 82 1016.3
20260903191327 85 77 4.0 9.0 0.00 0.00 0.00 82 1016.2
20260903190825 85 78 4.0 5.0 0.00 0.00 0.00 82 1016.1
20260903190320 84 192 1.0 5.0 0.00 0.00 0.00 83 1016.3
20260903185819 85 73 4.0 7.0 0.00 0.00 0.00 82 1016.3
20260903185314 85 80 3.0 4.0 0.00 0.00 0.00 82 1016.3
20260903184811 85 76 3.0 6.0 0.00 0.00 0.00 82 1016.4
20260903184307 85 103 3.0 5.0 0.00 0.00 0.00 82 1016.4
20260903183802 85 87 7.0 8.0 0.00 0.00 0.00 81 1016.6
20260903183302 85 82 2.0 3.0 0.00 0.00 0.00 82 1016.7
20260903182800 85 91 2.0 9.0 0.00 0.00 0.00 81 1016.8
20260903182256 86 102 3.0 5.0 0.00 0.00 0.00 81 1016.8
20260903181755 86 116 4.0 5.0 0.00 0.00 0.00 81 1016.8
20260903181250 86 133 1.0 6.0 0.00 0.00 0.00 81 1016.7
20260903180745 86 62 2.0 5.0 0.00 0.00 0.00 80 1016.8
20260903180244 87 29 2.0 5.0 0.00 0.00 0.00 78 1016.7
20260903175738 87 142 2.0 5.0 0.00 0.00 0.00 78 1016.9
20260903175237 88 85 5.0 6.0 0.00 0.00 0.00 76 1016.8
20260903174732 87 75 3.0 10.0 0.00 0.00 0.00 76 1016.8
20260903174227 87 71 6.0 6.0 0.00 0.00 0.00 76 1016.7
20260903173722 87 78 5.0 5.0 0.00 0.00 0.00 76 1016.8
20260903173218 86 41 1.0 5.0 0.00 0.00 0.00 77 1017.0
20260903172717 87 85 2.0 5.0 0.00 0.00 0.00 76 1016.9
20260903172212 87 54 1.0 7.0 0.00 0.00 0.00 76 1016.8
20260903171708 87 82 5.0 7.0 0.00 0.00 0.00 75 1016.6
20260903171204 87 51 3.0 5.0 0.00 0.00 0.00 77 1017.0
20260903170702 87 77 2.0 6.0 0.00 0.00 0.00 77 1016.8
20260903170153 86 88 2.0 4.0 0.00 0.00 0.00 78 1017.0
20260903165650 87 87 3.0 5.0 0.00 0.00 0.00 78 1017.0
20260903165145 87 99 4.0 6.0 0.00 0.00 0.00 77 1017.3
20260903164639 87 104 3.0 3.0 0.00 0.00 0.00 79 1017.2
20260903164136 87 94 2.0 4.0 0.00 0.00 0.00 76 1017.3
20260903163630 87 114 2.0 5.0 0.00 0.00 0.00 76 1017.4
20260903163127 87 83 5.0 6.0 0.00 0.00 0.00 74 1017.6
20260903162623 87 81 2.0 5.0 0.00 0.00 0.00 73 1017.4
20260903162118 88 60 2.0 4.0 0.00 0.00 0.00 72 1017.3
20260903161613 89 98 2.0 3.0 0.00 0.00 0.00 73 1017.5
20260903161108 89 32 0.0 4.0 0.00 0.00 0.00 71 1017.7
20260903160604 88 19 0.0 3.0 0.00 0.00 0.00 72 1017.7
20260903160057 89 93 2.0 3.0 0.00 0.00 0.00 72 1017.8
20260903155556 88 146 1.0 3.0 0.00 0.00 0.00 72 1017.7
20260903155051 88 121 0.0 3.0 0.00 0.00 0.00 72 1017.7
20260903154548 88 70 0.0 4.0 0.00 0.00 0.00 73 1017.7
20260903154044 88 209 2.0 2.0 0.00 0.00 0.00 74 1017.8
20260903153539 87 155 0.0 2.0 0.00 0.00 0.00 74 1017.8
20260903153035 87 58 0.0 2.0 0.00 0.00 0.00 74 1017.8
20260903152530 87 156 2.0 3.0 0.00 0.00 0.00 73 1017.9
20260903152027 87 159 1.0 3.0 0.00 0.00 0.00 76 1017.8
20260903151525 87 99 2.0 3.0 0.00 0.00 0.00 76 1017.9
20260903151021 86 144 2.0 3.0 0.00 0.00 0.00 77 1017.8
20260903150515 86 221 2.0 3.0 0.00 0.00 0.00 76 1018.0
20260903150010 85 195 1.0 6.0 0.00 0.00 0.00 77 1017.9
20260903145505 86 213 5.0 5.0 0.00 0.00 0.00 76 1017.9
20260903145000 86 173 3.0 7.0 0.00 0.00 0.00 77 1017.8
20260903144459 86 182 2.0 3.0 0.00 0.00 0.00 78 1017.8
20260903143955 85 146 3.0 7.0 0.00 0.00 0.00 79 1017.7
20260903143451 85 193 3.0 5.0 0.00 0.00 0.00 79 1017.8
20260903142947 86 201 3.0 5.0 0.00 0.00 0.00 79 1017.6
20260903142442 85 187 3.0 6.0 0.00 0.00 0.00 78 1017.6
20260903141938 85 204 5.0 6.0 0.00 0.00 0.00 78 1017.7
20260903141433 85 213 5.0 7.0 0.00 0.00 0.00 77 1017.6
20260903140929 85 209 2.0 4.0 0.00 0.00 0.00 77 1017.5
20260903140424 86 225 5.0 5.0 0.00 0.00 0.00 76 1017.2
20260903135919 85 205 3.0 6.0 0.00 0.00 0.00 77 1017.3
20260903135415 85 233 3.0 5.0 0.00 0.00 0.00 79 1017.2
20260903134914 85 201 6.0 8.0 0.00 0.00 0.00 76 1017.2
20260903134409 88 203 4.0 5.0 0.00 0.00 0.00 70 1017.2
20260903133906 88 84 2.0 4.0 0.00 0.00 0.00 73 1017.4
20260903133403 88 189 2.0 4.0 0.00 0.00 0.00 75 1017.2
20260903132902 87 202 0.0 2.0 0.00 0.00 0.00 78 1017.3
20260903132358 86 165 2.0 3.0 0.00 0.00 0.00 80 1017.0
20260903131853 84 209 1.0 3.0 0.00 0.00 0.00 86 1017.2
20260903131352 84 198 2.0 3.0 0.00 0.00 0.00 86 1017.2
20260903130852 83 269 0.0 2.0 0.00 0.00 0.00 89 1017.0
20260903130341 83 245 1.0 3.0 0.00 0.00 0.00 88 1017.1
20260903125840 83 206 2.0 3.0 0.00 0.00 0.00 88 1016.9
20260903125336 83 255 0.0 2.0 0.00 0.00 0.00 88 1017.1
20260903124834 83 240 2.0 3.0 0.00 0.00 0.00 88 1017.1
20260903124330 83 237 2.0 2.0 0.00 0.00 0.00 87 1017.2
20260903123829 83 180 0.0 2.0 0.00 0.00 0.00 90 1017.1
20260903123323 81 176 0.0 2.0 0.00 0.00 0.00 92 1017.1
20260903122821 81 209 2.0 4.0 0.00 0.00 0.00 92 1017.1
20260903122316 81 194 3.0 4.0 0.00 0.00 0.00 92 1017.1
20260903121814 81 203 3.0 4.0 0.00 0.00 0.00 93 1017.1
20260903121310 80 210 1.0 3.0 0.00 0.00 0.00 94 1017.1
20260903120806 80 169 1.0 3.0 0.00 0.00 0.00 94 1017.0
20260903120300 80 193 1.0 2.0 0.00 0.00 0.00 96 1017.1
20260903115758 79 143 0.0 4.0 0.00 0.00 0.00 97 1016.9
20260903115254 79 146 1.0 3.0 0.00 0.00 0.00 97 1017.0
20260903114748 79 172 1.0 3.0 0.00 0.00 0.00 97 1016.9